SCP
0 0 0 0 0 0 0 0 0 0 0 0 0 1 1 0 0 0 0 0 0 0 0 0 0 0 0 0 0 0 1 1 1 1 0 0 0 0 0 0 0 0 0 0
0 0 0 0 0 0 0 0 0 0 0 0 0 1 0 0 0 0 0 0 0 0 0 0 0 0 0 0 0 0 1 1 1 0 0 0 0 0 0 0 0 0 0 0
0 0 0 0 0 0 0 0 0 0 0 0 0 0 0 0 0 0 0 0 0 0 0 0 0 0 0 0 0 0 0 1 0 0 0 0 0 0 0 0 0 0 0 0
0 0 0 0 0 0 0 0 0 0 0 0 0 0 0 0 0 0 0 0 0 0 0 0 0 0 0 0 0 0 0 0 0 0 0 0 0 0 0 0 0 0 0 0
0 0 0 0 0 0 0 0 0 0 0 0 0 0 0 0 0 0 0 0 0 0 0 0 0 0 0 0 0 0 0 0 0 0 0 0 0 0 0 0 0 0 0 0
0 0 0 0 0 0 0 0 0 0 0 0 0 0 0 0 0 0 0 0 0 0 0 0 0 0 0 0 0 0 0 0 0 0 0 0 0 0 0 0 0 0 0 0
0 0 0 0 0 0 0 0 0 0 0 0 0 0 0 0 0 0 0 0 0 0 0 0 0 0 0 0 0 0 0 0 0 0 0 0 0 0 0 0 0 0 0 0
0 0 0 0 0 0 0 0 0 0 0 0 0 0 0 0 0 0 0 0 0 0 0 0 0 0 0 0 0 0 0 0 0 0 0 0 0 0 0 0 0 0 0 0
0 0 0 0 0 0 0 0 0 0 0 0 0 0 0 0 0 0 0 0 0 0 0 0 0 0 0 0 0 0 0 0 0 0 0 0 0 0 0 0 0 0 0 0
0 0 0 0 0 0 0 0 0 0 0 0 0 0 0 0 0 0 0 0 0 0 0 0 0 0 0 0 0 0 0 0 0 0 0 0 0 0 0 0 0 0 0 0
0 0 0 0 0 0 0 0 0 0 0 0 0 0 0 0 0 0 0 0 0 0 0 0 0 0 0 0 0 0 0 0 0 0 0 0 0 0 0 0 0 0 0 0
0 0 0 0 0 0 0 0 0 0 0 0 0 0 0 0 0 0 0 0 0 0 0 0 0 0 0 0 0 0 0 0 0 0 0 0 0 0 0 0 0 0 0 0
0 0 0 0 0 0 0 0 0 0 0 0 0 0 0 0 0 0 0 0 0 0 0 0 0 0 0 0 0 0 0 0 0 0 0 0 0 0 0 0 0 0 0 0
0 0 0 0 0 0 0 0 0 0 0 0 0 0 0 0 0 0 0 0 0 0 0 0 0 0 0 0 0 0 0 0 0 0 0 0 0 0 0 0 0 0 0 0
0 0 0 0 0 0 0 0 0 0 0 0 0 0 0 0 0 0 0 0 0 0 0 0 0 0 0 0 0 0 0 0 0 0 0 0 0 0 0 0 0 0 0 0
0 0 0 0 0 0 0 0 0 0 0 0 0 0 0 0 0 0 0 0 0 0 0 0 0 0 0 0 0 0 0 0 0 0 0 0 0 0 0 0 0 0 0 0
0 0 0 0 0 0 0 0 0 0 0 0 0 0 0 0 0 0 0 0 0 0 0 0 0 0 0 0 0 0 0 0 0 0 0 0 0 0 0 0 0 0 0 0
0 0 0 0 0 0 0 0 0 0 0 0 0 0 0 0 0 0 0 0 0 0 0 0 0 0 0 0 0 0 0 0 0 0 0 0 0 0 0 0 0 0 0 0
0 0 0 0 0 0 0 0 0 0 0 0 0 0 0 0 0 0 0 0 0 0 0 0 0 0 0 0 0 0 0 0 0 0 0 0 0 0 0 0 0 0 0 0
0 0 0 0 0 0 0 0 0 0 0 0 0 0 0 0 0 0 0 0 0 0 0 0 0 0 0 0 0 0 0 0 0 0 0 0 0 0 0 0 0 0 0 0
0 0 0 0 0 0 0 0 0 0 0 0 0 0 0 0 0 0 0 0 0 0 0 0 0 0 0 0 0 0 0 0 0 0 0 0 0 0 0 0 0 0 0 0
0 0 0 0 0 0 0 0 0 0 0 0 0 0 0 0 0 0 0 0 0 0 0 0 0 0 0 0 0 0 0 0 0 0 0 0 0 0 0 0 0 0 0 0
0 0 0 0 0 0 0 0 0 0 0 0 0 0 0 0 0 0 0 0 0 0 0 0 0 0 0 0 0 0 0 0 0 0 0 0 0 0 0 0 0 0 0 0
0 0 0 0 0 0 0 0 0 0 0 0 0 0 0 0 0 0 0 0 0 0 0 0 0 0 0 0 0 0 0 0 0 0 0 0 0 0 0 0 0 0 0 0
0 0 0 0 0 0 0 0 0 0 0 0 0 0 0 0 0 0 0 0 0 0 0 0 0 0 0 0 0 0 0 0 0 0 0 0 0 0 0 0 0 0 0 0
0 0 0 0 0 0 0 0 0 0 0 0 0 0 0 0 0 0 0 0 0 0 0 0 0 0 0 0 0 0 0 0 0 0 0 0 0 0 0 0 0 0 0 0
Wind_Speed
13 10 6 7 10 6 9 11 13 13 4 1 8 12 11 10 10 10 9 8 8 9 9 7 6 6 6 5 4 3 4 4 4 4 5 5 4 4 4 1 3 3 4 5
7 7 11 9 12 9 6 4 5 3 7 4 5 9 11 10 9 10 10 10 9 9 8 6 5 4 4 4 3 3 5 6 6 5 5 5 5 5 4 2 1 2 3 4
2 6 17 15 10 8 8 8 4 2 5 10 7 6 7 7 8 9 10 9 9 8 7 5 3 2 1 2 2 3 3 3 5 6 6 7 6 5 5 5 3 2 3 4
1 10 12 9 7 7 6 5 5 4 4 4 1 2 6 7 7 8 9 8 7 5 5 4 1 1 3 3 3 2 2 3 4 6 7 9 8 7 8 6 5 6 5 5
7 6 7 6 4 6 4 4 2 5 4 4 9 5 3 9 9 9 8 8 6 5 2 1 1 2 3 4 4 3 4 4 4 5 7 8 8 7 7 8 9 8 7 6
17 9 6 5 6 7 7 4 1 9 9 6 2 1 5 7 9 10 9 7 5 3 2 2 2 3 3 5 4 4 4 5 5 6 6 7 8 8 9 9 9 8 6 5
15 8 5 4 6 8 11 10 3 4 2 6 7 6 5 6 7 7 7 6 4 3 3 2 3 4 5 6 5 4 5 5 5 5 6 6 7 8 10 9 7 7 7 6
4 5 5 7 6 5 8 9 7 8 4 4 8 6 4 6 6 4 3 2 0 2 3 5 6 6 6 7 6 6 5 5 5 5 6 6 7 7 7 8 9 9 8 7
3 4 3 4 5 6 8 9 12 10 8 2 7 8 6 6 6 3 2 2 3 5 6 7 8 9 8 7 6 6 5 5 5 6 6 6 5 6 7 7 9 8 7 9
7 7 3 2 2 3 8 9 8 8 8 8 6 8 6 5 3 5 5 5 6 7 8 10 10 10 9 8 6 6 5 5 6 7 6 8 6 6 6 8 8 8 8 8
6 6 7 3 6 8 8 10 9 8 9 8 6 8 8 5 4 5 7 8 8 9 10 10 9 9 9 9 8 7 7 6 6 6 6 6 7 7 8 7 8 7 7 8
7 6 6 8 8 5 3 6 7 7 8 7 6 8 4 3 5 6 7 7 8 9 9 10 10 9 9 10 10 9 8 8 7 7 6 7 7 8 8 9 8 7 8 8
9 5 4 3 4 7 2 4 5 7 7 7 7 6 0 5 9 9 9 9 8 8 9 9 9 9 9 10 10 10 10 10 10 9 8 8 9 9 9 9 8 8 8 8
5 5 5 6 4 5 6 5 4 6 7 8 9 10 9 10 10 9 8 7 8 8 8 9 8 7 8 8 8 9 10 10 10 10 10 9 10 10 10 10 9 9 9 9
4 8 7 8 6 6 7 8 6 5 6 8 9 10 9 10 9 8 8 9 9 8 9 9 9 8 7 8 8 9 9 9 9 10 11 11 10 10 10 9 9 9 10 12
1 6 10 11 10 7 9 8 5 4 6 7 9 9 10 10 10 9 9 9 8 9 10 11 11 10 9 9 9 9 9 9 8 10 11 11 11 11 11 10 10 10 10 10
5 5 9 11 10 10 9 4 2 4 6 7 9 8 9 10 10 9 9 8 8 10 11 11 11 10 9 9 8 9 9 10 10 10 11 11 11 12 12 13 13 12 11 11
5 6 6 11 13 13 5 3 2 3 5 7 7 6 9 9 8 7 6 7 8 10 10 11 11 11 10 10 9 8 10 10 11 11 11 12 12 13 12 12 12 11 10 10
6 4 7 9 12 11 2 3 3 2 7 5 4 7 9 10 10 5 7 7 7 9 9 9 10 12 11 10 9 10 11 11 11 12 12 12 13 14 13 13 13 11 10 11
5 6 7 9 13 15 13 8 7 2 2 8 6 7 9 10 9 6 8 8 8 9 9 9 10 11 10 9 9 11 11 11 12 12 13 13 13 13 14 13 12 11 9 11
8 9 11 11 13 10 8 10 1 6 5 3 6 7 7 7 6 7 8 8 7 8 9 9 10 9 9 9 9 10 11 11 11 12 13 14 13 13 13 11 9 9 10 10
8 9 10 10 10 4 8 0 5 5 2 4 5 6 6 5 6 7 7 7 8 9 10 10 9 9 8 8 9 11 11 11 11 12 14 14 14 14 12 11 10 9 9 9
7 7 6 6 6 1 3 5 4 3 3 3 5 5 5 5 6 7 7 7 8 9 9 9 10 10 8 8 8 10 10 10 12 13 14 14 15 13 11 10 10 8 7 7
10 8 7 7 8 8 8 8 5 4 5 4 4 3 4 5 6 6 6 6 7 8 8 9 10 10 10 9 9 9 10 10 12 13 14 13 13 13 11 7 7 7 7 7
11 11 11 12 11 10 10 8 7 6 6 6 4 4 4 4 5 6 5 5 6 7 8 8 9 9 10 10 10 10 10 10 12 13 13 13 12 12 10 8 6 6 4 4
12 11 9 9 8 6 7 8 9 7 7 7 6 6 4 4 5 5 5 5 6 7 8 8 9 10 11 10 10 9 9 10 11 12 12 10 11 10 9 8 7 4 5 5
Wind_Direction
234 237 272 304 289 256 195 189 193 223 249 209 144 144 150 148 142 137 137 133 126 117 116 116 115 108 102 93 77 57 32 27 354 3 341 331 329 331 311 329 35 8 349 338
276 317 303 256 250 262 260 248 154 84 341 319 173 154 144 149 145 143 142 139 134 128 128 128 130 119 105 91 56 46 33 15 358 357 319 301 318 313 301 339 1 10 351 334
127 239 262 271 283 310 334 360 12 197 239 261 223 147 117 127 140 146 140 139 138 141 137 139 133 110 65 57 30 34 32 11 4 345 325 335 327 314 319 334 319 355 335 318
214 224 248 281 319 326 330 316 296 263 211 254 240 176 171 173 177 161 151 149 144 143 149 150 171 11 340 356 3 27 33 21 2 346 337 331 320 319 325 326 326 329 312 296
298 273 278 297 295 287 249 231 337 357 347 346 26 360 229 183 182 174 168 158 149 162 173 167 287 308 328 341 341 358 27 22 6 346 329 324 321 326 323 324 315 310 297 280
308 301 295 307 303 317 306 259 65 39 29 1 344 304 253 214 187 171 164 157 162 176 214 228 281 326 346 338 340 357 12 7 355 339 328 321 322 320 313 303 295 297 297 294
306 301 295 324 340 355 319 300 321 14 73 243 214 206 229 195 161 153 152 157 165 196 240 285 328 343 346 333 339 350 357 353 345 329 317 318 315 308 296 296 310 320 317 314
299 308 324 7 358 326 290 302 317 314 287 183 176 197 163 126 112 116 118 112 280 313 356 352 346 351 345 343 350 352 353 339 329 320 314 310 298 300 311 326 327 312 300 298
309 298 304 22 342 342 329 340 334 316 320 99 153 138 126 137 146 125 44 8 351 5 358 350 354 353 351 354 354 346 341 334 328 320 308 292 303 322 318 312 302 302 308 309
331 323 342 16 307 24 343 341 351 334 345 346 97 111 126 141 56 23 359 359 8 4 355 357 353 346 349 345 343 343 343 337 326 317 316 321 327 311 304 305 302 299 298 298
359 324 323 341 24 360 355 9 2 343 0 341 2 82 96 70 35 6 359 8 7 1 355 349 344 346 344 339 338 341 338 330 322 322 323 317 310 310 305 298 296 301 305 306
8 331 340 12 21 325 5 16 4 354 345 324 336 99 87 66 49 29 8 6 8 1 349 343 341 343 340 336 335 332 331 324 325 327 319 313 312 309 306 305 303 299 295 293
347 326 325 360 324 280 300 44 14 340 309 317 340 87 169 31 39 28 17 6 356 352 347 343 343 343 336 335 331 327 325 324 325 321 319 317 313 309 304 301 298 296 293 291
290 300 325 338 350 333 330 343 17 340 336 336 350 356 359 30 19 7 357 347 349 353 351 345 343 338 334 328 326 324 321 320 318 320 317 312 307 304 301 299 298 296 294 292
290 312 326 319 318 317 325 324 332 329 327 317 333 331 9 26 2 355 352 352 346 346 344 342 337 331 329 326 324 319 318 317 319 315 311 308 306 303 298 296 295 293 291 291
220 314 312 306 305 283 294 288 275 291 296 303 317 325 21 8 357 352 348 338 335 344 340 335 331 331 327 324 320 321 319 319 318 314 310 308 305 302 300 298 295 292 290 290
308 308 309 306 308 298 301 295 231 314 317 318 313 338 9 351 344 336 329 331 350 344 335 334 334 329 323 318 321 321 319 319 317 313 310 309 308 306 305 305 302 298 296 294
260 296 298 293 301 295 312 106 61 354 328 305 307 7 5 344 342 346 33 25 351 338 338 336 329 324 321 323 323 321 319 317 314 312 312 313 311 308 307 303 299 297 296 292
221 252 284 295 295 300 327 184 151 336 312 325 14 8 346 347 326 76 60 11 351 347 337 328 324 322 322 323 326 324 318 316 314 315 317 316 313 308 305 301 300 299 296 293
214 203 251 275 289 293 302 108 103 331 0 58 25 357 345 336 322 355 15 358 355 341 330 326 325 322 322 330 330 322 317 317 319 321 318 313 309 305 302 299 298 298 297 294
222 229 243 266 277 293 85 109 262 317 56 18 355 351 334 342 324 326 333 344 341 331 329 330 329 324 325 328 327 320 318 320 324 320 314 309 307 304 298 296 297 299 300 299
291 281 275 278 282 308 114 127 332 0 356 329 335 329 331 322 313 318 329 335 334 333 332 334 327 324 325 330 327 321 321 325 323 318 313 311 309 307 305 303 301 301 302 303
290 298 303 308 323 119 220 279 306 307 289 294 302 323 325 311 311 319 326 333 333 330 333 329 327 325 327 331 329 322 325 326 323 318 314 312 310 305 302 302 305 307 306 308
309 336 314 294 288 283 282 292 283 261 256 259 277 291 291 293 305 314 323 327 327 331 329 330 327 325 327 331 331 327 327 327 322 318 315 312 310 307 309 308 308 309 313 318
301 293 279 273 273 272 273 277 276 257 240 236 241 252 262 277 292 306 316 323 328 324 327 327 324 324 326 330 328 330 332 329 322 317 315 314 312 309 308 307 304 302 312 312
287 290 295 299 304 294 293 287 269 245 236 237 236 245 256 268 285 302 312 320 317 320 326 325 326 325 326 326 328 333 335 330 320 315 316 314 311 310 310 311 311 292 280 257